American Canyon, CA

1:18 PM PDT on September 29, 2016 (GMT -0700)
Napa County

Weather History for KAPC - February, 2012

Change the Weather History Date:

Friday, February 3, 2012

  Actual Average Record
Temperature  
Mean Temperature 47 °F 48 °F  
Max Temperature 64 °F 57 °F 68 °F (2009)
Min Temperature 30 °F 38 °F 30 °F (2012)
Degree Days  
Heating Degree Days 18    
Month to date heating degree days 48  
Since 1 July heating degree days 1869  
Cooling Degree Days 0    
Month to date cooling degree days 0  
Year to date cooling degree days 0  
Moisture  
Dew Point 34 °F    
Average Humidity 61    
Maximum Humidity 89    
Minimum Humidity 32    
Precipitation  
Precipitation 0.00 in - 1.51 in (1927)
Month to date precipitation 0.05  
Year to date precipitation 4.05  
Since 1 July precipitation 7.63  
Sea Level Pressure  
Sea Level Pressure 30.01 in    
Wind  
Wind Speed 5 mph (East)    
Max Wind Speed 15 mph    
Max Gust Speed 18 mph    
Visibility 10 miles    
Events      
T = Trace of Precipitation, MM = Missing Value Source: NWS Daily Summary

Daily Weather History Graph

Daily Weather History Graph

Search for Another Location

Airport or City:

Trip Planner

Search our weather history database for the weather conditions in past years. The results will help you decide how hot, cold, wet, or windy it might be!

Date:

Astronomy

Feb. 03, 2012 Rise Set
Actual Time 7:12 AM PST 5:33 PM PST
Civil Twilight 6:44 AM PST 6:01 PM PST
Nautical Twilight 6:13 AM PST 6:32 PM PST
Astronomical Twilight 5:42 AM PST 7:03 PM PST
Moon 1:41 PM PST (2/3) 3:51 AM PST (2/3)
Length of Visible Light 11h 16m
Length of Day
10h 21m
Waxing Gibbous, 82% of the Moon is Illuminated
Feb 3
Waxing Gibbous
Feb 7
Full
Feb 14
Last Quarter
Feb 21
New
Feb 29
First Quarter

Hourly Weather History & Observations

Time (PST) Temp. Windchill Dew Point Humidity Pressure Visibility Wind Dir Wind Speed Gust Speed Precip Events Conditions
12:54 AM 41.0 °F - 30.0 °F 65% 29.99 in 10.0 mi Calm Calm - N/A   Clear
1:54 AM 37.9 °F - 34.0 °F 86% 29.98 in 10.0 mi Calm Calm - N/A   Clear
2:54 AM 33.1 °F - 28.9 °F 85% 29.99 in 10.0 mi Calm Calm - N/A   Clear
3:54 AM 35.1 °F 30.1 °F 30.9 °F 85% 30.00 in 10.0 mi WNW 5.8 mph - N/A   Clear
4:54 AM 34.0 °F 28.8 °F 30.0 °F 85% 30.02 in 10.0 mi East 5.8 mph - N/A   Clear
5:54 AM 35.1 °F 32.2 °F 30.9 °F 85% 30.01 in 10.0 mi SE 3.5 mph - N/A   Clear
6:54 AM 35.1 °F 31.0 °F 30.9 °F 85% 30.03 in 10.0 mi ESE 4.6 mph - N/A   Clear
7:54 AM 37.0 °F - 33.1 °F 86% 30.05 in 10.0 mi Calm Calm - N/A   Clear
8:54 AM 46.0 °F - 37.0 °F 71% 30.05 in 10.0 mi Calm Calm - N/A   Clear
9:54 AM 52.0 °F - 34.0 °F 50% 30.05 in 10.0 mi ESE 6.9 mph - N/A   Clear
10:54 AM 55.0 °F - 36.0 °F 49% 30.05 in 10.0 mi East 12.7 mph - N/A   Clear
11:54 AM 59.0 °F - 37.0 °F 44% 30.03 in 10.0 mi East 9.2 mph - N/A   Clear
12:54 PM 63.0 °F - 32.0 °F 31% 30.00 in 10.0 mi East 11.5 mph - N/A   Clear
1:54 PM 63.0 °F - 36.0 °F 37% 29.99 in 10.0 mi East 11.5 mph 18.4 mph N/A   Clear
2:54 PM 63.0 °F - 39.0 °F 41% 29.99 in 10.0 mi East 10.4 mph - N/A   Clear
3:54 PM 62.1 °F - 39.9 °F 44% 29.98 in 10.0 mi East 11.5 mph - N/A   Clear
4:54 PM 60.1 °F - 39.9 °F 47% 29.98 in 10.0 mi East 10.4 mph - N/A   Clear
5:54 PM 55.0 °F - 37.9 °F 53% 29.99 in 10.0 mi East 6.9 mph - N/A   Clear
6:54 PM 54.0 °F - 36.0 °F 51% 30.01 in 10.0 mi Variable 6.9 mph - N/A   Clear
7:54 PM 46.0 °F - 37.9 °F 73% 30.01 in 10.0 mi Calm Calm - N/A   Clear
8:54 PM 44.1 °F - 37.0 °F 76% 30.02 in 10.0 mi Calm Calm - N/A   Clear
9:54 PM 41.0 °F 37.1 °F 35.1 °F 79% 30.03 in 10.0 mi North 5.8 mph - N/A   Clear
10:54 PM 39.9 °F - 33.1 °F 77% 30.03 in 10.0 mi Calm Calm - N/A   Clear
11:54 PM 39.9 °F - 33.1 °F 77% 30.04 in 10.0 mi Calm Calm - N/A   Clear